Weather in Krotovka

Russia / Samara Oblast     53°17′03″N   51°10′20″E
temp.,
°C
wind,
m/s
gust,
m/s
humid.,
%
clouds,
%
prec.,
mm/h
press.,
hPa
HPBL,
m
26 january, tue
tue2601:00−3s3995100 0.1 1031521
04:00−1sse51093100 0.1 1029557
07:00−3s5109397 0.0 1029385
10:00−5sse5109498 0.0 1029318
13:00−5sse61094100 0.0 1029415
16:00−4s61192100 0.0 1028477
19:00−6s51392100 0.0 1028387
22:00−6s41194100 0.0 1028433
27 january, wed
wed2701:00−3s51193100 0.0 1029469
04:00−5sse51193100 0.0 1028357
07:00−6s61294100 0.0 1028331
10:00−6s61194100 0.0 1028343
13:00−5s71293100 0.0 1028382
16:00−6sse61291100 0.0 1027369
19:00−6sse61291100 0.0 1027343
22:00−6sse51491100 0.0 1025383
28 january, thu
thu2801:00−6sse61490100 0.0 1025361
04:00−7sse61287100 0.0 1024330
07:00−8sse51191100 0.0 1024338
10:00−8sse51091100 0.0 1023343
13:00−7sse51091100 0.0 1023375
16:00−7sse4992100 0.0 1021335
19:00−7se4992100 0.0 1021245
22:00−9se4794100 0.0 1020150
29 january, fri
fri2901:00−9se4892100 0.0 1019178
04:00−7se5991100 0.0 1017252
07:00−8ese41090100 0.0 1015263
10:00−6ese61286100 0.0 1013366
13:00−4se61089100 0.0 1011529
16:00−3se61192100 0.1 1008589
19:00−3se61296100 1.9 1007588
22:00−1se61296100 2.9 1005450
30 january, sat
sat3001:000ssw5997100 1.1 1006470
04:00−3ssw4996100 1.1 1008255
07:00−7s479551 0.0 1009124
10:00−5sse5109466 0.0 1011228
13:00−2sse61190100 0.0 1011354
16:00−2sse61191100 0.0 1010349
19:00−2se71488100 0.0 1009411
22:00−2sse81696100 1.9 1008677